Flag for Uruguay Weather past 2 weeks in Canelones, Uruguay

Now
59 °F

Clear.


Feels Like: 58 °F
Forecast: 53 / 77 °F
Wind: 7 mph from North

Location: Carrasco

Current Time: Apr 27, 2015 at 4:22:56 AM

Latest Report: Apr 27, 2015 at 4:00 AM


Visibility: 10 mi

Pressure: 30.07 "Hg

Humidity: 72%

Dew point: 50 °F

Location of CanelonesLocation

Historic Weather in Canelones — Graph

°F

Canelones temperature yesterday

Maximum temperature yesterday: 82 °F (at 2:00 PM)
Minimum temperature yesterday: 55 °F (at 5:00 AM)
Average temperature yesterday: 66 °F

Past Weeks' High & Low Weather Summary

 TemperatureHumidityPressure
High86 °F (Apr 13, 4:00 PM)100% (Apr 17, 8:00 AM)30.18 "Hg (Apr 17, 8:00 AM)
Low48 °F (Apr 21, 6:00 AM)34% (Apr 24, 3:00 PM)29.74 "Hg (Apr 19, 5:00 PM)
Average65 °F68%30.01 "Hg
* Reported Apr 12 3:00 AM — Apr 27 3:00 AM, Canelones, Weather by CustomWeather, © 2015

Note: Actual official high and low records may vary slightly from our data, if they occured in-between our weather recording intervals... More about our weather records

Advertising

Canelones weather history for previous 24 hours

 ConditionsComfort  
Time TempWeatherWind HumidityBarometerVisibility
3:00 AM
Mon, Apr 27
61 °FClear.6 mph72%30.07 "Hg10 mi
2:00 AM59 °FClear.3 mph77%30.07 "Hg10 mi
1:00 AM61 °FClear.No wind72%30.07 "Hg10 mi
12:00 AM59 °FClear.No wind88%30.07 "Hg10 mi
11:00 PM
Sun, Apr 26
64 °FClear.No wind68%30.04 "Hg10 mi
10:00 PM64 °FClear.5 mph83%30.04 "Hg5 mi
9:00 PM64 °FClear.5 mph83%30.04 "Hg4 mi
8:00 PM64 °FClear.No wind88%30.04 "Hg10 mi
7:00 PM68 °FClear.6 mph78%30.04 "Hg10 mi
6:00 PM72 °FClear.3 mph65%30.04 "Hg10 mi
5:00 PM75 °FSunny.5 mph54%30.04 "Hg10 mi
4:00 PM75 °FSunny.8 mph57%30.04 "Hg10 mi
3:00 PM77 °FSunny.8 mph51%30.04 "Hg10 mi
2:00 PM82 °FSunny.5 mph45%30.04 "Hg10 mi
1:00 PM81 °FSunny.8 mph34%30.07 "Hg10 mi
12:00 PM79 °FSunny.9 mph34%30.07 "Hg10 mi
11:00 AM77 °FSunny.9 mph39%30.09 "Hg10 mi
10:00 AM70 °FSunny.6 mph53%30.09 "Hg10 mi
9:00 AM63 °FSunny.6 mph64%30.09 "Hg10 mi
8:00 AM55 °FSunny.6 mph77%30.07 "Hg10 mi
7:00 AM55 °FSunny.6 mph77%30.07 "Hg10 mi
6:00 AM55 °FClear.5 mph72%30.07 "Hg10 mi
5:00 AM55 °FClear.6 mph72%30.04 "Hg10 mi
4:00 AM57 °FClear.3 mph72%30.04 "Hg10 mi
Weather by CustomWeather, © 2015

See weather overviewHow to use our weather pages